Location: ????????
(55.0559°N, 39.1270°E)
Time: 01:41:57
(UTC+00:00)

Cosmos 2084 - Pass Details

Date: 15 November 2025
Orbit: 529 x 573 km, 62.8° (Epoch: 12 December)

Event Time Altitude Azimuth Distance (km) Brightness Sun altitude
Exits shadow 01:52:04 40° 34° (NNE) 811 4.3 -25.9°
Drops below altitude 10° 01:55:39 10° 95° (E) 1,801 7.0 -25.4°
Sets 01:57:56 0° 102° (ESE) 2,685 8.1 -25.1°
